DELTA 1 DEB, 8319

Orbit data source: Space-Track

DELTA 1 DEB, 8319 is space debris in SSO originally from a launch on Sun, 23 Jul 1972 UTC launched from the Air Force Western Test Range (AFWTR). Debris objects in space refer to the collection of defunct objects orbiting the Earth. Examples of debris include non-operational satellites, rocket bodies, and fragments generated from explosions, collisions, or faulty payload assembly.

Loading next visibility...
Identifier
8319, 1972-058EM
Orbit
SSO
Country
Flag of USUS
Related business
Manufacturer
Unknown
Mission
Spacecraft
Bus & Motor
Unknown
Mass
Unknown
Launch date (UTC)
1972-07-23 (54 years ago)
Launch vehicle
Unknown
Launch site
Air Force Western Test Range (AFWTR)
Object type
Payload
Rocket body
Debris
Shape & HBR
Unknown shape, 0.5 m
Radar Cross Section
Medium (>0.1 m² and <1 m²)

Expand to show TLE details & history
Last TLE update: 12 hours ago

TLE from 12 hours ago
0 DELTA 1 DEB
1  8319U 72058EM  26150.15325806  .00000879  00000-0  19464-3 0  9998
2  8319  98.6141 207.6037 0133817 133.8709 227.3635 14.54443753815047
Epoch: 2026-05-30T03:40Z
TLE epoch observation values (Epoch: 2026-05-30T03:40:41.496Z)
Latitude
0.00005°
Longitude
-95.24258°
Altitude
779.086 km
Speed
7.43 km/s
True Right ascension
13h 50m 24s
True Declination
0° 00' 00"
Sunlit
Object was in full shadow at epoch
Visualization orbit readout
Latitude
Unknown
Longitude
Unknown
Altitude
Unknown
Speed
Unknown
Apparent Right ascension
Unknown
Apparent Declination
Unknown
Sunlit
N/A
Visualization observer readout
Local Sidereal Time
00:53:18
Azimuth
Unknown
Elevation
Unknown
Doppler factor
Unknown
Orbital elements
Apogee altitude
803.107 km
Perigee altitude
613.451 km
Semi-major axis
7,086.416 km
Eccentricity
0.01338
Inclination
98.6141°
RAAN
207.6037°
Arg. of periapsis
133.8709°
True anomaly
226.24812°
Mean anomaly
227.3635°
Eccentric anomaly
226.80455°
Mean motion
3.63834 °/min
Orbital period
98.95 mins
BSTAR
0.00019464
Loading maneuver chart data...
Computing Atmospheric mass density...
Loading historical data...
Loading historical data...
Loading historical data...
Loading historical data...
Loading historical data...
Loading historical data...
Loading historical data...

Documentation

Showing up to 5 results
|